Location: Le Broscinq
(44.4500°N, 6.3333°E)
Time: 09:35:08
(UTC+00:00)

Daily predictions for brighter satellites

Satellite Brightness Start Highest point End
(mag) Time Altitude Azimuth Time Altitude Azimuth Time Altitude Azimuth
Okean 1 Rocket 4.1 17:23:33 10° NNE 17:27:13 25° ENE 17:30:49 10° SE
SMAP 4.3 17:24:36 10° S 17:29:05 48° W 17:33:37 10° NNW
COSMOS 2428 3.1 17:23:41 10° NNW 17:29:10 44° ENE 17:34:37 10° SE
ARIANE 5 R/B 2.8 17:26:23 10° S 17:31:31 78° WSW 17:36:38 10° NNW
Cosmos 158 Rocket 3.8 17:30:46 10° S 17:35:35 67° ESE 17:40:25 10° NNE
Cosmos 2237 Rocket 3.3 17:33:39 10° N 17:38:16 25° NE 17:42:53 10° ESE
Cosmos 2322 Rocket 4.3 17:33:33 10° NW 17:38:26 31° WSW 17:43:18 10° SSW
Aureole 3 Rocket 4.0 17:35:25 10° NNE 17:38:31 20° ENE 17:41:07 10° ESE
SeaSat 1 2.6 17:33:51 10° SSE 17:38:44 81° WSW 17:43:40 10° NNW
Cosmos 1378 Rocket 3.4 17:34:32 10° S 17:38:50 74° E 17:43:08 10° NNE
ATLAS 5 CENTAUR R/B 1.8 17:35:26 10° NW 17:39:49 87° ENE 17:45:16 10° SE
Resurs 01 Rocket 2.6 17:36:36 10° ESE 17:40:10 25° ENE 17:43:46 10° NNE
USA 234 3.8 17:33:41 10° SE 17:40:11 65° SW 17:46:42 10° NW
GP-B 3.1 17:38:28 10° S 17:42:49 89° WSW 17:47:13 10° N
SKYMED 2 3.5 17:40:02 10° NNE 17:44:23 77° ESE 17:48:44 10° S
Cosmos 2219 Rocket 3.3 17:42:53 10° NW 17:48:15 48° WSW 17:53:34 10° S
Cosmos 2292 Rocket 3.6 17:45:37 10° SSW 17:48:26 49° W 17:51:20 10° N
COSMO-SKYMED 1 2.6 17:44:41 10° NNE 17:48:41 48° E 17:52:39 10° S
CZ-4 R/B 4.4 17:45:03 10° SSE 17:49:01 84° WSW 17:53:01 10° NNW
PSLV R/B 3.8 17:46:04 10° SE 17:49:56 40° ENE 17:53:47 10° N
NOSS 3-3 (A) 3.6 17:45:30 10° SSW 17:50:29 67° ESE 17:56:24 10° NE
IRS-P3 4.4 17:46:54 10° S 17:52:13 76° WSW 17:57:34 10° NNW
Cosmos 2322 3.7 17:47:46 10° NNW 17:53:31 75° ENE 17:59:13 10° SSE
Resurs 1-3 3.5 17:49:18 10° SSE 17:53:35 76° ENE 17:57:53 10° N
USA 306 2.6 17:52:09 10° NW 17:54:28 23° NNE 17:55:03 21° NE
Cosmos 2016 Rocket 4.1 17:49:34 10° N 17:55:49 83° W 18:02:08 10° S
Cosmos 1025 Rocket 3.0 17:52:56 10° S 17:57:09 62° E 18:01:27 10° NNE
SJ-7 4.2 17:54:04 10° SSE 17:57:41 54° ENE 18:01:18 10° N
Cosmos 2285 Rocket 4.3 17:54:17 10° N 18:00:29 47° ENE 18:06:36 10° SE
SL-16 R/B 3.9 17:58:37 10° NNE 18:01:15 13° NE 18:02:27 12° NE
Cosmos 1375 Rocket 4.5 17:55:11 10° SSW 18:01:28 70° ESE 18:07:55 10° NE
SPOT 1/Viking Rocket 4.2 17:57:25 10° S 18:02:27 59° W 18:07:31 10° NNW
Cosmos 2227 Rocket 3.5 17:59:11 10° SE 18:02:46 17° E 18:03:35 17° E
SJ-6B 3.4 18:05:12 17° ESE 18:06:56 26° ENE 18:09:51 10° NNE
SPOT 5 4.2 18:08:20 19° ENE 18:08:58 19° ENE 18:12:28 10° NNE
NOSS 3-4 (A) 4.4 18:04:12 10° NNW 18:10:17 37° NE 18:15:10 18° E
NOSS 3-4 (C) 4.4 18:04:27 10° NNW 18:10:34 37° NE 18:15:23 19° E
CZ-2D R/B 3.3 18:07:36 10° SSE 18:11:29 83° WSW 18:15:28 10° NNW
Cosmos 2233 Rocket 4.1 18:05:30 10° N 18:11:48 85° W 18:18:06 10° S
Cosmos 1674 Rocket 3.9 18:09:01 10° SSW 18:13:22 68° W 18:17:46 10° N
Cosmos 1315 Rocket 3.7 18:13:58 10° NNW 18:17:38 48° W 18:21:18 10° S
Lacrosse 5 rocket 3.0 18:23:30 10° WNW 18:26:15 21° NNW 18:28:21 13° NNE
Atlas Centaur 2 4.2 18:21:11 10° SW 18:26:55 24° S 18:30:59 14° SE
Cosmos 2061 Rocket 4.2 18:20:36 10° N 18:26:59 75° W 18:33:16 10° S
Helios 1A Rocket 3.2 18:28:45 32° SE 18:28:45 32° SE 18:30:57 10° S
CZ-4C R/B 2.5 18:27:09 10° WSW 18:31:14 50° NW 18:36:08 11° NNE
Radarsat Rocket 4.3 18:27:37 10° S 18:33:24 70° WSW 18:39:32 10° NNW
IRAS Rocket 4.2 18:27:54 10° SSE 18:33:26 68° ENE 18:39:03 10° N
CARTOSAT-1 3.7 18:29:23 10° S 18:33:33 70° WSW 18:37:46 10° NNW
Tiangong -0.2 18:35:15 10° SSW 18:37:06 19° S 18:37:06 19° S
CRYOSAT 2 4.2 18:34:04 10° N 18:38:59 78° E 18:43:51 10° S
NOSS 0 Rocket 4.1 18:33:05 10° NNW 18:39:20 77° WSW 18:45:32 10° SSE
USA 267 4.4 18:41:48 16° NE 18:46:12 33° NNW 18:51:52 10° WNW
Cosmos 2297 Rocket 2.1 18:41:30 10° SSW 18:47:10 89° WNW 18:52:37 11° NNE
Cosmos 1464 Rocket 4.0 18:41:12 10° N 18:47:27 55° ENE 18:53:37 10° SSE
Cosmos 1570 Rocket 3.9 18:42:53 10° SSW 18:48:09 79° ESE 18:52:48 14° NNE
CSL-04 Rocket 3.8 18:47:26 40° ESE 18:48:31 45° ENE 18:53:31 10° N
Cosmos 2344 3.9 18:41:57 10° S 18:49:23 39° ESE 18:51:11 34° E
BREEZE-M DEB (TANK) 4.1 18:46:55 10° WNW 18:50:57 83° NNE 18:56:52 28° ESE
Cosmos 1975 Rocket 3.1 18:46:45 10° S 18:50:37 54° ESE 18:50:37 54° ESE
Cosmos 1455 Rocket 2.9 18:48:39 10° N 18:52:58 85° W 18:57:15 10° S
Cosmos 1125 Rocket 4.0 18:50:51 10° NNW 18:55:57 60° WSW 19:01:03 10° S
Meteor 1-27 4.3 18:58:11 10° NNW 19:03:58 79° W 19:09:47 10° S
Cosmos 2208 Rocket 3.8 19:00:09 10° SSW 19:05:21 80° ESE 19:07:29 37° NNE
Terra 4.2 19:11:53 11° N 19:11:53 11° N 19:12:01 10° N
Meteor 2-17 Rocket 4.5 19:07:56 10° SSW 19:14:00 78° W 19:20:05 10° N
Resurs 01 Rocket 3.3 19:12:25 10° SSW 19:16:22 33° W 19:20:23 10° NNW
Cosmos 1980 4.1 19:11:32 10° NNW 19:17:07 61° WSW 19:20:52 21° S
Cosmos 2263 Rocket 4.0 19:15:19 10° S 19:16:37 17° S 19:16:37 17° S
Cosmos 44 Rocket 3.3 19:16:37 10° SW 19:21:21 83° WSW 19:21:21 83° WSW
Cosmos 773 Rocket 4.2 19:17:28 10° SSW 19:22:43 69° WNW 19:25:06 33° N
Cosmos 2237 Rocket 2.6 19:17:08 10° NNW 19:22:44 60° WSW 19:25:52 26° S
Cosmos 2228 4.2 19:23:03 10° NNW 19:25:37 35° NNW 19:25:37 35° NNW
Orbus 7S? 4.2 19:22:42 10° NW 19:28:58 61° NNW 19:28:58 61° NNW
Cosmos 2150 Rocket 4.1 19:29:25 10° NNW 19:33:58 67° NW 19:33:58 67° NW
Cosmos 2298 Rocket 4.2 19:30:03 10° NNW 19:34:42 68° NW 19:34:42 68° NW
Cosmos 2227 Rocket 2.4 19:40:30 10° SSW 19:45:29 65° WSW 19:45:29 65° WSW
SPOT 5 3.7 19:47:23 47° WNW 19:47:23 47° WNW 19:51:19 10° NNW
SL-16 R/B 3.2 19:40:54 10° NNW 19:44:20 36° N 19:44:20 36° N
NOSS 3-4 (A) 4.1 19:54:44 10° NW 20:01:36 65° WSW 20:02:40 59° SSW
NOSS 3-4 (C) 4.1 19:55:01 10° NW 20:01:54 65° WSW 20:02:53 60° SSW
Cosmos 2034 Rocket 4.3 19:56:57 10° NNW 20:02:53 61° W 20:02:53 61° W
BREEZE-M DEB (TANK) 4.0 19:55:57 10° W 20:10:45 74° NW 20:10:45 74° NW
Atlas Centaur 2 4.4 20:09:42 10° WSW 20:12:55 19° SSW 20:12:55 19° SSW
CZ-4C R/B 4.4 20:18:00 10° NW 20:21:00 16° NNW 20:21:07 16° NNW
